| time (UTC) | temp F | wind direction | speed MPH | gust MPH | rain 1hr in | rain 24hr in | rain mn in | humidity % | barometer mb |
| 20260510071012 | 49 | 306 | 3.0 | 10.0 | 0.00 | 0.17 | 0.00 | 59 | 1009.9 |
| 20260510070508 | 49 | 347 | 3.0 | 12.0 | 0.00 | 0.17 | 0.00 | 59 | 1009.9 |
| 20260510070046 | 48 | 27 | 0.0 | 8.0 | 0.00 | 0.13 | 0.00 | 59 | 1008.8 |
| 20260510070026 | 49 | 342 | 3.0 | 12.0 | 0.00 | 0.17 | 0.00 | 58 | 1009.8 |
| 20260510065509 | 49 | 250 | 1.0 | 16.0 | 0.00 | 0.17 | 0.00 | 59 | 1009.7 |
| 20260510065009 | 49 | 322 | 3.0 | 16.0 | 0.00 | 0.17 | 0.00 | 57 | 1009.5 |
| 20260510064543 | 49 | 239 | 1.0 | 4.0 | 0.00 | 0.13 | 0.00 | 58 | 1008.7 |
| 20260510064528 | 50 | 295 | 2.0 | 13.0 | 0.00 | 0.17 | 0.00 | 57 | 1009.6 |
| 20260510064012 | 50 | 309 | 4.0 | 13.0 | 0.00 | 0.17 | 0.00 | 57 | 1009.5 |
| 20260510063516 | 50 | 330 | 6.0 | 13.0 | 0.00 | 0.17 | 0.00 | 57 | 1009.6 |
| 20260510063041 | 49 | 48 | 0.0 | 3.0 | 0.00 | 0.13 | 0.00 | 61 | 1008.5 |
| 20260510063029 | 50 | 0 | 3.0 | 9.0 | 0.00 | 0.17 | 0.00 | 58 | 1009.6 |
| 20260510062514 | 50 | 19 | 3.0 | 9.0 | 0.00 | 0.17 | 0.00 | 58 | 1009.4 |
| 20260510062011 | 50 | 312 | 3.0 | 8.0 | 0.00 | 0.17 | 0.00 | 59 | 1009.3 |
| 20260510061542 | 49 | 300 | 0.0 | 2.0 | 0.00 | 0.13 | 0.00 | 62 | 1008.5 |
| 20260510061013 | 50 | 294 | 4.0 | 12.0 | 0.00 | 0.17 | 0.00 | 58 | 1009.5 |
| 20260510060509 | 50 | 260 | 2.0 | 8.0 | 0.00 | 0.17 | 0.00 | 59 | 1009.3 |
| 20260510060036 | 49 | 291 | 0.0 | 2.0 | 0.00 | 0.13 | 0.00 | 64 | 1008.3 |
| 20260510060029 | 50 | 323 | 2.0 | 4.0 | 0.00 | 0.17 | 0.00 | 60 | 1009.2 |
| 20260510055511 | 50 | 265 | 0.0 | 8.0 | 0.00 | 0.17 | 0.00 | 60 | 1009.1 |
| 20260510055011 | 50 | 304 | 1.0 | 8.0 | 0.00 | 0.17 | 0.00 | 60 | 1009.1 |
| 20260510054535 | 50 | 0 | 0.0 | 3.0 | 0.00 | 0.13 | 0.00 | 63 | 1008.0 |
| 20260510054528 | 50 | 306 | 1.0 | 5.0 | 0.00 | 0.17 | 0.00 | 61 | 1009.0 |
| 20260510054015 | 51 | 0 | 0.0 | 4.0 | 0.00 | 0.17 | 0.00 | 61 | 1008.9 |
| 20260510053514 | 51 | 277 | 1.0 | 4.0 | 0.00 | 0.17 | 0.00 | 60 | 1008.7 |
| 20260510053051 | 50 | 0 | 0.0 | 4.0 | 0.00 | 0.13 | 0.00 | 63 | 1007.9 |
| 20260510053030 | 51 | 0 | 1.0 | 5.0 | 0.00 | 0.17 | 0.00 | 61 | 1008.7 |
| 20260510052513 | 51 | 320 | 1.0 | 5.0 | 0.00 | 0.17 | 0.00 | 60 | 1008.7 |
| 20260510052011 | 51 | 259 | 0.0 | 5.0 | 0.00 | 0.17 | 0.00 | 61 | 1008.6 |
| 20260510051547 | 50 | 15 | 0.0 | 3.0 | 0.00 | 0.13 | 0.00 | 63 | 1007.8 |
| 20260510051531 | 51 | 311 | 2.0 | 6.0 | 0.00 | 0.17 | 0.00 | 61 | 1008.6 |
| 20260510051008 | 51 | 301 | 1.0 | 7.0 | 0.00 | 0.17 | 0.00 | 63 | 1008.5 |
| 20260510050512 | 51 | 321 | 2.0 | 7.0 | 0.00 | 0.17 | 0.00 | 63 | 1008.6 |
| 20260510050041 | 50 | 0 | 0.0 | 2.0 | 0.00 | 0.13 | 0.00 | 62 | 1007.8 |
| 20260510050027 | 51 | 284 | 1.0 | 3.0 | 0.00 | 0.17 | 0.00 | 63 | 1008.6 |
| 20260510045512 | 51 | 0 | 0.0 | 6.0 | 0.00 | 0.17 | 0.00 | 63 | 1008.5 |
| 20260510045013 | 51 | 317 | 0.0 | 7.0 | 0.00 | 0.17 | 0.00 | 63 | 1008.3 |
| 20260510044540 | 50 | 10 | 1.0 | 4.0 | 0.00 | 0.13 | 0.00 | 63 | 1007.5 |
| 20260510044528 | 51 | 288 | 0.0 | 7.0 | 0.00 | 0.17 | 0.00 | 62 | 1008.2 |
| 20260510044010 | 51 | 275 | 1.0 | 5.0 | 0.00 | 0.17 | 0.00 | 62 | 1007.9 |
| 20260510043513 | 51 | 0 | 1.0 | 8.0 | 0.00 | 0.17 | 0.00 | 61 | 1007.9 |
| 20260510043045 | 50 | 26 | 0.0 | 4.0 | 0.00 | 0.13 | 0.00 | 64 | 1007.3 |
| 20260510043028 | 52 | 331 | 2.0 | 8.0 | 0.00 | 0.17 | 0.00 | 61 | 1007.8 |
| 20260510042513 | 52 | 261 | 2.0 | 6.0 | 0.00 | 0.17 | 0.00 | 61 | 1007.7 |
| 20260510042013 | 52 | 286 | 1.0 | 8.0 | 0.00 | 0.17 | 0.00 | 62 | 1007.7 |
| 20260510041538 | 50 | 25 | 0.0 | 1.0 | 0.00 | 0.13 | 0.00 | 67 | 1007.0 |
| 20260510041527 | 52 | 23 | 2.0 | 9.0 | 0.00 | 0.17 | 0.00 | 62 | 1007.5 |
| 20260510041015 | 52 | 5 | 2.0 | 11.0 | 0.00 | 0.17 | 0.00 | 62 | 1007.6 |
| 20260510040512 | 52 | 341 | 3.0 | 11.0 | 0.00 | 0.17 | 0.00 | 62 | 1007.6 |
| 20260510040046 | 50 | 32 | 0.0 | 2.0 | 0.00 | 0.13 | 0.00 | 65 | 1006.9 |
| 20260510040030 | 52 | 312 | 2.0 | 9.0 | 0.00 | 0.17 | 0.00 | 62 | 1007.4 |
| 20260510035514 | 52 | 307 | 3.0 | 11.0 | 0.00 | 0.17 | 0.17 | 61 | 1007.4 |
| 20260510035013 | 52 | 332 | 2.0 | 12.0 | 0.00 | 0.17 | 0.17 | 61 | 1007.3 |
| 20260510034541 | 51 | 25 | 0.0 | 5.0 | 0.00 | 0.13 | 0.13 | 66 | 1006.7 |
| 20260510034529 | 52 | 38 | 4.0 | 12.0 | 0.00 | 0.17 | 0.17 | 62 | 1007.2 |
| 20260510034013 | 52 | 5 | 4.0 | 9.0 | 0.00 | 0.17 | 0.17 | 62 | 1007.2 |
| 20260510033511 | 52 | 313 | 3.0 | 11.0 | 0.00 | 0.17 | 0.17 | 63 | 1007.3 |
| 20260510033040 | 51 | 30 | 3.0 | 7.0 | 0.00 | 0.13 | 0.13 | 66 | 1006.5 |
| 20260510033029 | 53 | 292 | 2.0 | 11.0 | 0.00 | 0.17 | 0.17 | 65 | 1007.2 |
| 20260510032513 | 53 | 327 | 3.0 | 11.0 | 0.00 | 0.17 | 0.17 | 66 | 1006.8 |
| 20260510032015 | 53 | 360 | 4.0 | 11.0 | 0.00 | 0.17 | 0.17 | 70 | 1006.9 |
| 20260510031546 | 52 | 29 | 2.0 | 6.0 | 0.00 | 0.13 | 0.13 | 68 | 1006.2 |
| 20260510031542 | 53 | 360 | 2.0 | 12.0 | 0.00 | 0.17 | 0.17 | 73 | 1006.9 |
| 20260510031013 | 53 | 315 | 4.0 | 12.0 | 0.00 | 0.17 | 0.17 | 75 | 1006.7 |
| 20260510030513 | 53 | 332 | 3.0 | 10.0 | 0.00 | 0.17 | 0.17 | 80 | 1007.0 |
| 20260510030040 | 52 | 34 | 4.0 | 9.0 | 0.00 | 0.13 | 0.13 | 70 | 1006.4 |
| 20260510030030 | 54 | 317 | 0.0 | 3.0 | 0.00 | 0.17 | 0.17 | 83 | 1007.0 |
| 20260510025512 | 54 | 317 | 0.0 | 5.0 | 0.00 | 0.17 | 0.17 | 83 | 1006.9 |
| 20260510025009 | 54 | 333 | 1.0 | 9.0 | 0.00 | 0.17 | 0.17 | 83 | 1007.0 |
| 20260510024541 | 52 | 31 | 0.0 | 2.0 | 0.00 | 0.13 | 0.13 | 88 | 1006.2 |
| 20260510024537 | 54 | 0 | 0.0 | 9.0 | 0.00 | 0.17 | 0.17 | 83 | 1006.8 |
| 20260510024013 | 54 | 318 | 3.0 | 9.0 | 0.00 | 0.17 | 0.17 | 82 | 1006.9 |
| 20260510023512 | 55 | 273 | 3.0 | 9.0 | 0.00 | 0.17 | 0.17 | 81 | 1007.0 |
| 20260510023041 | 53 | 0 | 0.0 | 0.0 | 0.00 | 0.13 | 0.13 | 89 | 1006.3 |
| 20260510023030 | 55 | 291 | 2.0 | 9.0 | 0.00 | 0.17 | 0.17 | 81 | 1006.8 |
| 20260510022517 | 55 | 321 | 2.0 | 9.0 | 0.00 | 0.16 | 0.16 | 80 | 1006.7 |
| 20260510022011 | 55 | 321 | 1.0 | 6.0 | 0.00 | 0.16 | 0.16 | 79 | 1006.6 |
| 20260510021547 | 52 | 344 | 0.0 | 1.0 | 0.00 | 0.12 | 0.12 | 89 | 1005.9 |
| 20260510021529 | 55 | 243 | 1.0 | 6.0 | 0.00 | 0.16 | 0.16 | 79 | 1006.5 |
| 20260510021011 | 55 | 296 | 1.0 | 5.0 | 0.00 | 0.16 | 0.16 | 80 | 1006.2 |
| 20260510020509 | 55 | 281 | 2.0 | 5.0 | 0.00 | 0.16 | 0.16 | 80 | 1006.0 |
| 20260510020042 | 52 | 0 | 0.0 | 1.0 | 0.00 | 0.12 | 0.12 | 89 | 1005.6 |
| 20260510020028 | 55 | 242 | 2.0 | 7.0 | 0.00 | 0.16 | 0.16 | 81 | 1006.3 |
| 20260510015509 | 54 | 261 | 3.0 | 7.0 | 0.00 | 0.16 | 0.16 | 82 | 1006.1 |
| 20260510015011 | 54 | 241 | 2.0 | 7.0 | 0.00 | 0.16 | 0.16 | 83 | 1006.1 |
| 20260510014536 | 52 | 0 | 0.0 | 1.0 | 0.00 | 0.12 | 0.12 | 89 | 1005.2 |
| 20260510014534 | 53 | 262 | 0.0 | 3.0 | 0.00 | 0.16 | 0.16 | 84 | 1005.8 |
| 20260510014012 | 53 | 0 | 0.0 | 1.0 | 0.00 | 0.16 | 0.16 | 83 | 1005.8 |
| 20260510013512 | 53 | 0 | 0.0 | 1.0 | 0.00 | 0.16 | 0.16 | 82 | 1005.6 |
| 20260510013049 | 52 | 260 | 0.0 | 1.0 | 0.00 | 0.12 | 0.12 | 89 | 1004.9 |
| 20260510013029 | 54 | 0 | 0.0 | 2.0 | 0.00 | 0.16 | 0.16 | 82 | 1005.4 |
| 20260510012511 | 54 | 0 | 0.0 | 2.0 | 0.00 | 0.16 | 0.16 | 81 | 1005.1 |
| 20260510012009 | 54 | 0 | 0.0 | 3.0 | 0.00 | 0.16 | 0.16 | 81 | 1005.1 |
| 20260510011544 | 52 | 0 | 0.0 | 1.0 | 0.00 | 0.12 | 0.12 | 88 | 1004.5 |
| 20260510011536 | 54 | 0 | 0.0 | 3.0 | 0.00 | 0.16 | 0.16 | 81 | 1004.9 |
| 20260510011012 | 54 | 227 | 0.0 | 3.0 | 0.00 | 0.16 | 0.16 | 80 | 1004.9 |
| 20260510010511 | 54 | 0 | 0.0 | 5.0 | 0.00 | 0.16 | 0.16 | 80 | 1004.8 |
| 20260510010041 | 53 | 0 | 1.0 | 3.0 | 0.02 | 0.12 | 0.12 | 87 | 1004.0 |
| 20260510010031 | 54 | 220 | 1.0 | 5.0 | 0.00 | 0.16 | 0.16 | 80 | 1004.6 |
| 20260510005511 | 54 | 247 | 2.0 | 5.0 | 0.00 | 0.16 | 0.16 | 81 | 1004.7 |
| 20260510005012 | 54 | 0 | 0.0 | 3.0 | 0.00 | 0.16 | 0.16 | 82 | 1004.6 |
| 20260510004545 | 53 | 264 | 0.0 | 2.0 | 0.03 | 0.12 | 0.12 | 87 | 1003.8 |
| 20260510004528 | 54 | 0 | 0.0 | 3.0 | 0.00 | 0.16 | 0.16 | 81 | 1004.6 |
| 20260510004013 | 54 | 216 | 1.0 | 3.0 | 0.00 | 0.16 | 0.16 | 81 | 1004.5 |
| 20260510003511 | 54 | 225 | 1.0 | 3.0 | 0.00 | 0.16 | 0.16 | 81 | 1004.4 |
| 20260510003055 | 54 | 236 | 0.0 | 8.0 | 0.00 | 0.16 | 0.16 | 80 | 1004.4 |
| 20260510003043 | 54 | 260 | 2.0 | 6.0 | 0.03 | 0.12 | 0.12 | 86 | 1003.5 |
| 20260510002513 | 54 | 0 | 0.0 | 8.0 | 0.00 | 0.16 | 0.16 | 80 | 1004.4 |
| 20260510002011 | 54 | 254 | 3.0 | 8.0 | 0.00 | 0.16 | 0.16 | 80 | 1004.6 |
| 20260510001543 | 53 | 260 | 1.0 | 2.0 | 0.02 | 0.11 | 0.11 | 86 | 1003.7 |
| 20260510001531 | 53 | 262 | 1.0 | 4.0 | 0.00 | 0.16 | 0.16 | 80 | 1004.5 |
| 20260510001014 | 53 | 0 | 0.0 | 9.0 | 0.00 | 0.16 | 0.16 | 79 | 1004.3 |
| 20260510000513 | 53 | 0 | 0.0 | 9.0 | 0.00 | 0.16 | 0.16 | 78 | 1004.3 |
| 20260510000048 | 53 | 0 | 2.0 | 6.0 | 0.00 | 0.10 | 0.10 | 85 | 1003.4 |
| 20260510000028 | 53 | 320 | 2.0 | 9.0 | 0.00 | 0.16 | 0.16 | 78 | 1004.4 |
| 20260509235512 | 54 | 336 | 2.0 | 8.0 | 0.00 | 0.16 | 0.16 | 77 | 1004.1 |
| 20260509235018 | 54 | 288 | 2.0 | 9.0 | 0.00 | 0.16 | 0.16 | 77 | 1004.0 |
| 20260509234535 | 53 | 0 | 1.0 | 7.0 | 0.00 | 0.09 | 0.09 | 81 | 1003.3 |
| 20260509234530 | 54 | 252 | 1.0 | 10.0 | 0.00 | 0.16 | 0.16 | 76 | 1003.7 |
| 20260509234015 | 54 | 0 | 2.0 | 13.0 | 0.00 | 0.16 | 0.16 | 75 | 1003.6 |
| 20260509233511 | 54 | 235 | 7.0 | 15.0 | 0.00 | 0.16 | 0.16 | 75 | 1003.4 |
| 20260509233035 | 53 | 213 | 4.0 | 10.0 | 0.00 | 0.09 | 0.09 | 81 | 1002.7 |
| 20260509233029 | 54 | 219 | 5.0 | 15.0 | 0.00 | 0.16 | 0.16 | 75 | 1003.4 |
| 20260509232511 | 54 | 241 | 6.0 | 15.0 | 0.00 | 0.16 | 0.16 | 74 | 1003.3 |
| 20260509232010 | 54 | 275 | 6.0 | 15.0 | 0.00 | 0.16 | 0.16 | 74 | 1003.2 |
| 20260509231544 | 54 | 233 | 6.0 | 14.0 | 0.00 | 0.09 | 0.09 | 79 | 1002.3 |
| 20260509231532 | 55 | 242 | 6.0 | 15.0 | 0.00 | 0.16 | 0.16 | 74 | 1003.2 |
| 20260509231015 | 55 | 282 | 8.0 | 15.0 | 0.01 | 0.16 | 0.16 | 74 | 1003.2 |
| 20260509230511 | 54 | 242 | 6.0 | 14.0 | 0.03 | 0.16 | 0.16 | 75 | 1003.1 |
| 20260509230041 | 55 | 221 | 5.0 | 15.0 | 0.01 | 0.09 | 0.09 | 78 | 1002.3 |
| 20260509230034 | 54 | 239 | 8.0 | 14.0 | 0.08 | 0.16 | 0.16 | 74 | 1003.1 |
| 20260509225512 | 55 | 240 | 6.0 | 13.0 | 0.13 | 0.16 | 0.16 | 75 | 1003.3 |
| 20260509225010 | 54 | 234 | 6.0 | 12.0 | 0.14 | 0.16 | 0.16 | 75 | 1003.3 |
| 20260509224540 | 55 | 255 | 5.0 | 11.0 | 0.08 | 0.09 | 0.09 | 81 | 1002.1 |
| 20260509224529 | 54 | 232 | 4.0 | 11.0 | 0.16 | 0.16 | 0.16 | 77 | 1003.1 |
| 20260509224010 | 53 | 232 | 5.0 | 14.0 | 0.16 | 0.16 | 0.16 | 79 | 1003.2 |
| 20260509223511 | 53 | 238 | 6.0 | 14.0 | 0.16 | 0.16 | 0.16 | 81 | 1003.2 |
| 20260509223039 | 54 | 242 | 4.0 | 9.0 | 0.09 | 0.09 | 0.09 | 85 | 1002.3 |
| 20260509223030 | 53 | 211 | 6.0 | 14.0 | 0.16 | 0.16 | 0.16 | 83 | 1003.2 |
| 20260509222510 | 53 | 207 | 6.0 | 17.0 | 0.16 | 0.16 | 0.16 | 82 | 1003.3 |
| 20260509222013 | 54 | 200 | 9.0 | 18.0 | 0.16 | 0.16 | 0.16 | 83 | 1003.3 |
| 20260509221538 | 54 | 209 | 6.0 | 18.0 | 0.09 | 0.09 | 0.09 | 85 | 1002.2 |
| 20260509221530 | 54 | 248 | 9.0 | 18.0 | 0.15 | 0.15 | 0.15 | 83 | 1002.6 |
| 20260509221010 | 55 | 243 | 8.0 | 18.0 | 0.14 | 0.14 | 0.14 | 82 | 1003.2 |
| 20260509220514 | 56 | 213 | 5.0 | 13.0 | 0.12 | 0.12 | 0.12 | 82 | 1003.8 |
| 20260509220045 | 56 | 253 | 8.0 | 14.0 | 0.07 | 0.07 | 0.07 | 82 | 1002.7 |
| 20260509220030 | 57 | 299 | 2.0 | 7.0 | 0.06 | 0.06 | 0.06 | 81 | 1004.4 |
| 20260509215512 | 57 | 215 | 2.0 | 8.0 | 0.03 | 0.03 | 0.03 | 80 | 1003.8 |
| 20260509215013 | 57 | 249 | 3.0 | 12.0 | 0.00 | 0.00 | 0.00 | 78 | 1003.4 |
| 20260509214602 | 59 | 265 | 5.0 | 12.0 | 0.00 | 0.00 | 0.00 | 77 | 1002.6 |
| 20260509214530 | 56 | 210 | 6.0 | 12.0 | 0.00 | 0.00 | 0.00 | 77 | 1003.4 |
| 20260509214011 | 57 | 229 | 4.0 | 8.0 | 0.00 | 0.00 | 0.00 | 75 | 1003.4 |
| 20260509213516 | 57 | 177 | 2.0 | 9.0 | 0.00 | 0.00 | 0.00 | 74 | 1003.3 |
| 20260509213040 | 59 | 226 | 2.0 | 7.0 | 0.00 | 0.00 | 0.00 | 74 | 1002.3 |
| 20260509213026 | 57 | 221 | 6.0 | 9.0 | 0.00 | 0.00 | 0.00 | 74 | 1003.3 |
| 20260509212511 | 57 | 254 | 4.0 | 9.0 | 0.00 | 0.00 | 0.00 | 74 | 1003.4 |
| 20260509212013 | 56 | 191 | 3.0 | 9.0 | 0.00 | 0.00 | 0.00 | 74 | 1003.6 |
| 20260509211542 | 59 | 248 | 5.0 | 9.0 | 0.00 | 0.00 | 0.00 | 72 | 1002.6 |
| 20260509211528 | 56 | 210 | 4.0 | 13.0 | 0.00 | 0.00 | 0.00 | 73 | 1003.5 |
| 20260509211012 | 57 | 248 | 5.0 | 13.0 | 0.00 | 0.00 | 0.00 | 73 | 1003.4 |
| 20260509210514 | 57 | 273 | 7.0 | 13.0 | 0.00 | 0.00 | 0.00 | 73 | 1003.3 |
| 20260509210043 | 59 | 167 | 6.0 | 13.0 | 0.00 | 0.00 | 0.00 | 72 | 1002.2 |
| 20260509210028 | 56 | 249 | 3.0 | 10.0 | 0.00 | 0.00 | 0.00 | 73 | 1003.2 |
| 20260509205511 | 56 | 224 | 5.0 | 11.0 | 0.00 | 0.00 | 0.00 | 73 | 1003.0 |
| 20260509205011 | 57 | 230 | 5.0 | 11.0 | 0.00 | 0.00 | 0.00 | 72 | 1003.0 |
| 20260509204537 | 58 | 225 | 3.0 | 13.0 | 0.00 | 0.00 | 0.00 | 72 | 1002.0 |
| 20260509204530 | 57 | 165 | 3.0 | 9.0 | 0.00 | 0.00 | 0.00 | 73 | 1003.1 |
| 20260509204016 | 57 | 161 | 3.0 | 8.0 | 0.00 | 0.00 | 0.00 | 73 | 1003.1 |
| 20260509203511 | 56 | 224 | 3.0 | 8.0 | 0.00 | 0.00 | 0.00 | 73 | 1003.0 |
| 20260509203053 | 57 | 231 | 4.0 | 8.0 | 0.00 | 0.00 | 0.00 | 72 | 1002.4 |
| 20260509203034 | 56 | 195 | 2.0 | 9.0 | 0.00 | 0.00 | 0.00 | 74 | 1003.2 |
| 20260509202510 | 56 | 217 | 4.0 | 9.0 | 0.00 | 0.00 | 0.00 | 74 | 1003.3 |
| 20260509202011 | 55 | 0 | 1.0 | 5.0 | 0.00 | 0.00 | 0.00 | 73 | 1003.4 |
| 20260509201541 | 56 | 240 | 3.0 | 9.0 | 0.00 | 0.00 | 0.00 | 73 | 1002.5 |
| 20260509201530 | 55 | 159 | 1.0 | 7.0 | 0.00 | 0.00 | 0.00 | 74 | 1003.3 |
| 20260509201012 | 54 | 136 | 1.0 | 7.0 | 0.00 | 0.00 | 0.00 | 74 | 1003.5 |
| 20260509200511 | 54 | 146 | 2.0 | 6.0 | 0.00 | 0.00 | 0.00 | 75 | 1003.8 |
| 20260509200041 | 56 | 189 | 3.0 | 8.0 | 0.00 | 0.00 | 0.00 | 73 | 1003.0 |
| 20260509200028 | 53 | 235 | 3.0 | 6.0 | 0.00 | 0.00 | 0.00 | 75 | 1003.8 |
| 20260509195513 | 53 | 134 | 1.0 | 6.0 | 0.00 | 0.00 | 0.00 | 76 | 1004.0 |
| 20260509195010 | 52 | 134 | 2.0 | 6.0 | 0.00 | 0.00 | 0.00 | 76 | 1003.8 |
| 20260509194541 | 56 | 153 | 2.0 | 9.0 | 0.00 | 0.00 | 0.00 | 73 | 1003.0 |
| 20260509194535 | 52 | 153 | 1.0 | 8.0 | 0.00 | 0.00 | 0.00 | 77 | 1003.8 |
| 20260509194015 | 52 | 210 | 3.0 | 8.0 | 0.00 | 0.00 | 0.00 | 76 | 1004.0 |
| 20260509193513 | 52 | 174 | 2.0 | 7.0 | 0.00 | 0.00 | 0.00 | 77 | 1003.9 |
| 20260509193038 | 57 | 220 | 3.0 | 9.0 | 0.00 | 0.00 | 0.00 | 72 | 1003.2 |
| 20260509193030 | 52 | 160 | 2.0 | 7.0 | 0.00 | 0.00 | 0.00 | 78 | 1004.0 |
| 20260509192511 | 51 | 140 | 3.0 | 7.0 | 0.00 | 0.00 | 0.00 | 77 | 1004.1 |
| 20260509192011 | 51 | 137 | 2.0 | 7.0 | 0.00 | 0.00 | 0.00 | 77 | 1004.3 |
| 20260509191551 | 58 | 276 | 4.0 | 10.0 | 0.00 | 0.00 | 0.00 | 70 | 1003.5 |
| 20260509191528 | 51 | 141 | 3.0 | 8.0 | 0.00 | 0.00 | 0.00 | 76 | 1004.4 |
| 20260509191015 | 52 | 139 | 3.0 | 8.0 | 0.00 | 0.00 | 0.00 | 76 | 1004.5 |
| 20260509190513 | 52 | 185 | 2.0 | 8.0 | 0.00 | 0.00 | 0.00 | 77 | 1004.4 |
| 20260509190048 | 59 | 246 | 3.0 | 9.0 | 0.00 | 0.00 | 0.00 | 69 | 1003.4 |
| 20260509190029 | 51 | 200 | 2.0 | 9.0 | 0.00 | 0.00 | 0.00 | 77 | 1004.4 |
| 20260509185513 | 51 | 128 | 5.0 | 9.0 | 0.00 | 0.00 | 0.00 | 76 | 1004.6 |
| 20260509185015 | 51 | 123 | 3.0 | 8.0 | 0.00 | 0.00 | 0.00 | 77 | 1004.5 |
| 20260509184549 | 60 | 229 | 4.0 | 10.0 | 0.00 | 0.00 | 0.00 | 69 | 1003.5 |
| 20260509184528 | 51 | 200 | 3.0 | 9.0 | 0.00 | 0.00 | 0.00 | 77 | 1004.5 |
| 20260509184012 | 51 | 153 | 3.0 | 9.0 | 0.00 | 0.00 | 0.00 | 78 | 1004.6 |
| 20260509183514 | 51 | 141 | 4.0 | 11.0 | 0.00 | 0.00 | 0.00 | 78 | 1004.7 |
| 20260509183050 | 61 | 225 | 5.0 | 11.0 | 0.00 | 0.00 | 0.00 | 69 | 1003.6 |
| 20260509183028 | 51 | 152 | 4.0 | 13.0 | 0.00 | 0.00 | 0.00 | 77 | 1004.7 |
| 20260509182514 | 52 | 148 | 5.0 | 13.0 | 0.00 | 0.00 | 0.00 | 77 | 1004.9 |
| 20260509182015 | 53 | 108 | 3.0 | 13.0 | 0.00 | 0.00 | 0.00 | 77 | 1004.8 |
| 20260509181541 | 53 | 115 | 7.0 | 13.0 | 0.00 | 0.00 | 0.00 | 76 | 1004.8 |
| 20260509181014 | 54 | 137 | 6.0 | 12.0 | 0.00 | 0.00 | 0.00 | 75 | 1004.6 |
| 20260509180518 | 55 | 114 | 5.0 | 12.0 | 0.00 | 0.00 | 0.00 | 76 | 1004.7 |
| 20260509180040 | 62 | 153 | 5.0 | 12.0 | 0.00 | 0.00 | 0.00 | 67 | 1003.7 |
| 20260509180028 | 55 | 136 | 4.0 | 11.0 | 0.00 | 0.00 | 0.00 | 75 | 1004.8 |
| 20260509175513 | 55 | 147 | 5.0 | 14.0 | 0.00 | 0.00 | 0.00 | 76 | 1004.9 |
| 20260509175014 | 55 | 136 | 6.0 | 14.0 | 0.00 | 0.00 | 0.00 | 75 | 1004.9 |
| 20260509174558 | 62 | 205 | 6.0 | 13.0 | 0.00 | 0.00 | 0.00 | 67 | 1003.9 |
| 20260509174526 | 55 | 165 | 6.0 | 14.0 | 0.00 | 0.00 | 0.00 | 75 | 1005.0 |
| 20260509174013 | 56 | 128 | 5.0 | 11.0 | 0.00 | 0.00 | 0.00 | 74 | 1005.2 |
| 20260509173512 | 56 | 157 | 7.0 | 11.0 | 0.00 | 0.00 | 0.00 | 74 | 1005.3 |
| 20260509173049 | 62 | 240 | 5.0 | 13.0 | 0.00 | 0.00 | 0.00 | 69 | 1004.4 |
| 20260509173028 | 56 | 167 | 4.0 | 10.0 | 0.00 | 0.00 | 0.00 | 75 | 1005.4 |
| 20260509172513 | 56 | 156 | 4.0 | 10.0 | 0.00 | 0.00 | 0.00 | 75 | 1005.4 |
| 20260509172013 | 57 | 136 | 4.0 | 9.0 | 0.00 | 0.00 | 0.00 | 71 | 1005.6 |
| 20260509171541 | 62 | 258 | 4.0 | 14.0 | 0.00 | 0.00 | 0.00 | 70 | 1004.7 |
| 20260509171528 | 58 | 142 | 1.0 | 8.0 | 0.00 | 0.00 | 0.00 | 73 | 1005.7 |
| 20260509171014 | 57 | 128 | 2.0 | 9.0 | 0.00 | 0.00 | 0.00 | 73 | 1005.7 |
| 20260509170512 | 57 | 90 | 3.0 | 9.0 | 0.00 | 0.00 | 0.00 | 74 | 1005.6 |
| 20260509170042 | 61 | 229 | 3.0 | 8.0 | 0.00 | 0.00 | 0.00 | 71 | 1004.8 |
| 20260509170030 | 56 | 184 | 2.0 | 8.0 | 0.00 | 0.00 | 0.00 | 76 | 1005.7 |
| 20260509165512 | 55 | 132 | 3.0 | 10.0 | 0.00 | 0.00 | 0.00 | 75 | 1005.7 |
| 20260509165011 | 55 | 168 | 5.0 | 10.0 | 0.00 | 0.00 | 0.00 | 75 | 1005.7 |
| 20260509164543 | 59 | 223 | 3.0 | 11.0 | 0.00 | 0.00 | 0.00 | 74 | 1004.8 |
| 20260509164530 | 56 | 98 | 4.0 | 9.0 | 0.00 | 0.00 | 0.00 | 74 | 1005.6 |
| 20260509164011 | 55 | 111 | 4.0 | 9.0 | 0.00 | 0.00 | 0.00 | 75 | 1005.6 |
| 20260509163517 | 56 | 131 | 3.0 | 9.0 | 0.00 | 0.00 | 0.00 | 74 | 1005.7 |
| 20260509163041 | 59 | 129 | 3.0 | 10.0 | 0.00 | 0.00 | 0.00 | 75 | 1005.0 |
| 20260509163032 | 55 | 113 | 3.0 | 9.0 | 0.00 | 0.00 | 0.00 | 74 | 1005.6 |
| 20260509162513 | 56 | 123 | 3.0 | 9.0 | 0.00 | 0.00 | 0.00 | 72 | 1005.9 |
| 20260509162015 | 56 | 107 | 4.0 | 9.0 | 0.00 | 0.00 | 0.00 | 72 | 1005.8 |
| 20260509161542 | 58 | 278 | 4.0 | 10.0 | 0.00 | 0.00 | 0.00 | 76 | 1005.2 |
| 20260509161534 | 56 | 163 | 3.0 | 9.0 | 0.00 | 0.00 | 0.00 | 73 | 1005.9 |
| 20260509161014 | 56 | 0 | 4.0 | 9.0 | 0.00 | 0.00 | 0.00 | 74 | 1005.9 |
| 20260509160516 | 56 | 139 | 3.0 | 9.0 | 0.00 | 0.00 | 0.00 | 74 | 1006.0 |
| 20260509160042 | 57 | 194 | 3.0 | 9.0 | 0.00 | 0.00 | 0.00 | 76 | 1005.3 |
| 20260509160030 | 56 | 109 | 3.0 | 8.0 | 0.00 | 0.00 | 0.00 | 75 | 1006.0 |
| 20260509155511 | 56 | 101 | 3.0 | 8.0 | 0.00 | 0.00 | 0.00 | 75 | 1006.2 |
| 20260509155011 | 55 | 0 | 1.0 | 8.0 | 0.00 | 0.00 | 0.00 | 77 | 1006.2 |
| 20260509154541 | 57 | 142 | 2.0 | 8.0 | 0.00 | 0.00 | 0.00 | 79 | 1005.6 |
| 20260509154530 | 55 | 131 | 3.0 | 8.0 | 0.00 | 0.00 | 0.00 | 76 | 1006.4 |
| 20260509154011 | 55 | 174 | 3.0 | 8.0 | 0.00 | 0.00 | 0.00 | 77 | 1006.5 |
| 20260509153510 | 54 | 153 | 2.0 | 6.0 | 0.00 | 0.00 | 0.00 | 76 | 1006.7 |
| 20260509153052 | 54 | 239 | 3.0 | 6.0 | 0.00 | 0.00 | 0.00 | 81 | 1005.8 |
| 20260509153028 | 54 | 198 | 2.0 | 6.0 | 0.00 | 0.00 | 0.00 | 75 | 1006.7 |
| 20260509152512 | 53 | 141 | 2.0 | 5.0 | 0.00 | 0.00 | 0.00 | 76 | 1006.8 |
| 20260509152012 | 53 | 0 | 1.0 | 5.0 | 0.00 | 0.00 | 0.00 | 78 | 1006.8 |
| 20260509151540 | 53 | 257 | 1.0 | 3.0 | 0.00 | 0.00 | 0.00 | 83 | 1006.0 |
| 20260509151530 | 52 | 180 | 2.0 | 5.0 | 0.00 | 0.00 | 0.00 | 79 | 1006.8 |
| 20260509151011 | 51 | 136 | 1.0 | 5.0 | 0.00 | 0.00 | 0.00 | 80 | 1006.8 |
| 20260509150512 | 50 | 0 | 0.0 | 7.0 | 0.00 | 0.00 | 0.00 | 81 | 1006.7 |
| 20260509150039 | 51 | 209 | 2.0 | 5.0 | 0.00 | 0.00 | 0.00 | 83 | 1005.9 |
| 20260509150028 | 49 | 136 | 3.0 | 7.0 | 0.00 | 0.00 | 0.00 | 80 | 1006.6 |
| 20260509145513 | 49 | 119 | 2.0 | 7.0 | 0.00 | 0.00 | 0.00 | 80 | 1006.7 |
| 20260509145012 | 49 | 0 | 1.0 | 8.0 | 0.00 | 0.00 | 0.00 | 80 | 1006.8 |
| 20260509144544 | 52 | 229 | 1.0 | 4.0 | 0.00 | 0.00 | 0.00 | 82 | 1006.0 |
| 20260509144536 | 49 | 130 | 3.0 | 8.0 | 0.00 | 0.00 | 0.00 | 80 | 1007.0 |
| 20260509144012 | 49 | 139 | 2.0 | 8.0 | 0.00 | 0.00 | 0.00 | 79 | 1007.1 |
| 20260509143512 | 49 | 202 | 2.0 | 6.0 | 0.00 | 0.00 | 0.00 | 79 | 1007.2 |
| 20260509143042 | 52 | 268 | 1.0 | 6.0 | 0.00 | 0.00 | 0.00 | 81 | 1006.2 |
| 20260509143030 | 49 | 192 | 2.0 | 6.0 | 0.00 | 0.00 | 0.00 | 78 | 1007.2 |
| 20260509142511 | 50 | 199 | 0.0 | 4.0 | 0.00 | 0.00 | 0.00 | 78 | 1007.2 |
| 20260509142013 | 49 | 206 | 1.0 | 4.0 | 0.00 | 0.00 | 0.00 | 79 | 1007.2 |
| 20260509141540 | 52 | 248 | 2.0 | 6.0 | 0.00 | 0.00 | 0.00 | 81 | 1006.2 |
| 20260509141528 | 49 | 144 | 1.0 | 5.0 | 0.00 | 0.00 | 0.00 | 78 | 1007.2 |
| 20260509141017 | 49 | 113 | 1.0 | 6.0 | 0.00 | 0.00 | 0.00 | 77 | 1007.2 |
| 20260509140512 | 49 | 123 | 2.0 | 6.0 | 0.00 | 0.00 | 0.00 | 77 | 1007.3 |
| 20260509140041 | 52 | 227 | 2.0 | 5.0 | 0.00 | 0.00 | 0.00 | 80 | 1006.2 |
| 20260509140030 | 49 | 128 | 2.0 | 6.0 | 0.00 | 0.00 | 0.00 | 77 | 1007.3 |
| 20260509135512 | 48 | 104 | 2.0 | 7.0 | 0.00 | 0.00 | 0.00 | 77 | 1007.3 |
| 20260509135013 | 48 | 126 | 2.0 | 7.0 | 0.00 | 0.00 | 0.00 | 77 | 1007.3 |
| 20260509134540 | 51 | 138 | 2.0 | 8.0 | 0.00 | 0.00 | 0.00 | 80 | 1006.4 |
| 20260509134529 | 48 | 138 | 2.0 | 6.0 | 0.00 | 0.00 | 0.00 | 77 | 1007.3 |
| 20260509134012 | 48 | 123 | 3.0 | 6.0 | 0.00 | 0.00 | 0.00 | 76 | 1007.4 |
| 20260509133512 | 48 | 159 | 2.0 | 6.0 | 0.00 | 0.00 | 0.00 | 76 | 1007.4 |
| 20260509133041 | 52 | 249 | 1.0 | 3.0 | 0.00 | 0.00 | 0.00 | 79 | 1006.5 |
| 20260509133030 | 48 | 157 | 3.0 | 7.0 | 0.00 | 0.00 | 0.00 | 76 | 1007.4 |
| 20260509132514 | 48 | 149 | 2.0 | 8.0 | 0.00 | 0.00 | 0.00 | 76 | 1007.5 |
| 20260509132013 | 48 | 140 | 3.0 | 8.0 | 0.00 | 0.00 | 0.00 | 76 | 1007.6 |
| 20260509131540 | 51 | 221 | 2.0 | 8.0 | 0.00 | 0.00 | 0.00 | 77 | 1006.6 |
| 20260509131528 | 48 | 141 | 3.0 | 8.0 | 0.00 | 0.00 | 0.00 | 75 | 1007.6 |
| 20260509131014 | 49 | 132 | 3.0 | 8.0 | 0.00 | 0.00 | 0.00 | 74 | 1007.6 |
| 20260509130510 | 49 | 150 | 2.0 | 7.0 | 0.00 | 0.00 | 0.00 | 73 | 1007.6 |
| 20260509130042 | 51 | 269 | 1.0 | 3.0 | 0.00 | 0.00 | 0.00 | 75 | 1006.6 |
| 20260509130032 | 49 | 138 | 3.0 | 8.0 | 0.00 | 0.00 | 0.00 | 72 | 1007.6 |
| 20260509125512 | 50 | 148 | 4.0 | 8.0 | 0.00 | 0.00 | 0.00 | 71 | 1007.5 |
| 20260509125012 | 50 | 122 | 3.0 | 8.0 | 0.00 | 0.00 | 0.00 | 71 | 1007.6 |
| 20260509124541 | 50 | 255 | 1.0 | 4.0 | 0.00 | 0.00 | 0.00 | 73 | 1006.7 |
| 20260509124527 | 50 | 184 | 2.0 | 7.0 | 0.00 | 0.00 | 0.00 | 71 | 1007.6 |
| 20260509124014 | 49 | 115 | 3.0 | 7.0 | 0.00 | 0.00 | 0.00 | 69 | 1007.5 |
| 20260509123512 | 49 | 87 | 2.0 | 6.0 | 0.00 | 0.00 | 0.00 | 69 | 1007.6 |
| 20260509123042 | 49 | 87 | 1.0 | 3.0 | 0.00 | 0.00 | 0.00 | 70 | 1006.6 |
| 20260509123027 | 49 | 124 | 1.0 | 6.0 | 0.00 | 0.00 | 0.00 | 69 | 1007.6 |
| 20260509122513 | 48 | 113 | 2.0 | 7.0 | 0.00 | 0.00 | 0.00 | 69 | 1007.7 |
| 20260509122012 | 48 | 97 | 2.0 | 7.0 | 0.00 | 0.00 | 0.00 | 68 | 1007.7 |
| 20260509121546 | 47 | 184 | 0.0 | 1.0 | 0.00 | 0.00 | 0.00 | 71 | 1006.8 |
| 20260509121530 | 48 | 155 | 2.0 | 6.0 | 0.00 | 0.00 | 0.00 | 68 | 1007.8 |
| 20260509121012 | 47 | 119 | 2.0 | 7.0 | 0.00 | 0.00 | 0.00 | 68 | 1007.8 |
| 20260509120511 | 47 | 144 | 2.0 | 7.0 | 0.00 | 0.00 | 0.00 | 68 | 1007.7 |
| 20260509120035 | 46 | 0 | 0.0 | 1.0 | 0.00 | 0.00 | 0.00 | 72 | 1006.6 |
| 20260509120030 | 47 | 129 | 1.0 | 4.0 | 0.00 | 0.00 | 0.00 | 69 | 1007.7 |
| 20260509115511 | 47 | 58 | 0.0 | 3.0 | 0.00 | 0.00 | 0.00 | 69 | 1007.7 |
| 20260509115014 | 46 | 0 | 1.0 | 4.0 | 0.00 | 0.00 | 0.00 | 69 | 1007.7 |
| 20260509114552 | 44 | 0 | 0.0 | 0.0 | 0.00 | 0.00 | 0.00 | 74 | 1006.7 |
| 20260509114528 | 46 | 94 | 1.0 | 4.0 | 0.00 | 0.00 | 0.00 | 69 | 1007.7 |
| 20260509114012 | 45 | 108 | 2.0 | 4.0 | 0.00 | 0.00 | 0.00 | 69 | 1007.7 |
| 20260509113510 | 45 | 86 | 1.0 | 4.0 | 0.00 | 0.00 | 0.00 | 70 | 1007.7 |
| 20260509113045 | 43 | 0 | 0.0 | 0.0 | 0.00 | 0.00 | 0.00 | 76 | 1006.7 |
| 20260509113033 | 45 | 63 | 0.0 | 3.0 | 0.00 | 0.00 | 0.00 | 72 | 1007.7 |
| 20260509112513 | 44 | 123 | 1.0 | 3.0 | 0.00 | 0.00 | 0.00 | 73 | 1007.8 |
| 20260509112010 | 44 | 117 | 0.0 | 3.0 | 0.00 | 0.00 | 0.00 | 74 | 1007.8 |
| 20260509111541 | 42 | 0 | 0.0 | 0.0 | 0.00 | 0.00 | 0.00 | 78 | 1006.8 |
| 20260509111011 | 43 | 0 | 0.0 | 2.0 | 0.00 | 0.00 | 0.00 | 78 | 1007.7 |
| 20260509110512 | 42 | 0 | 0.0 | 2.0 | 0.00 | 0.00 | 0.00 | 79 | 1007.7 |
| 20260509110042 | 41 | 0 | 0.0 | 0.0 | 0.00 | 0.00 | 0.00 | 80 | 1006.7 |
| 20260509105510 | 42 | 0 | 0.0 | 0.0 | 0.00 | 0.00 | 0.00 | 80 | 1007.9 |
| 20260509104544 | 40 | 0 | 0.0 | 0.0 | 0.00 | 0.00 | 0.00 | 81 | 1006.8 |
| 20260509104539 | 42 | 0 | 0.0 | 0.0 | 0.00 | 0.00 | 0.00 | 80 | 1007.9 |
| 20260509104009 | 42 | 0 | 0.0 | 0.0 | 0.00 | 0.00 | 0.00 | 81 | 1007.8 |
| 20260509103511 | 42 | 0 | 0.0 | 0.0 | 0.00 | 0.00 | 0.00 | 80 | 1007.9 |
| 20260509103052 | 40 | 0 | 0.0 | 0.0 | 0.00 | 0.00 | 0.00 | 82 | 1006.7 |
| 20260509103028 | 42 | 0 | 0.0 | 0.0 | 0.00 | 0.00 | 0.00 | 80 | 1007.8 |
| 20260509102510 | 42 | 0 | 0.0 | 0.0 | 0.00 | 0.00 | 0.00 | 80 | 1007.8 |
| 20260509101557 | 40 | 0 | 0.0 | 0.0 | 0.00 | 0.00 | 0.00 | 82 | 1006.9 |
| 20260509101537 | 42 | 0 | 0.0 | 1.0 | 0.00 | 0.00 | 0.00 | 80 | 1007.9 |
| 20260509101017 | 42 | 0 | 0.0 | 1.0 | 0.00 | 0.00 | 0.00 | 80 | 1007.9 |
| 20260509100512 | 42 | 0 | 0.0 | 0.0 | 0.00 | 0.00 | 0.00 | 80 | 1007.8 |
| 20260509100041 | 40 | 0 | 0.0 | 0.0 | 0.00 | 0.00 | 0.00 | 82 | 1006.9 |
| 20260509095513 | 42 | 0 | 0.0 | 0.0 | 0.00 | 0.00 | 0.00 | 80 | 1008.1 |
| 20260509094545 | 40 | 0 | 0.0 | 0.0 | 0.00 | 0.00 | 0.00 | 83 | 1007.1 |
| 20260509094011 | 42 | 0 | 0.0 | 0.0 | 0.00 | 0.00 | 0.00 | 80 | 1008.2 |
| 20260509093512 | 42 | 0 | 0.0 | 0.0 | 0.00 | 0.00 | 0.00 | 80 | 1008.2 |
| 20260509093042 | 42 | 0 | 0.0 | 0.0 | 0.00 | 0.00 | 0.00 | 80 | 1008.0 |
| 20260509092511 | 42 | 0 | 0.0 | 0.0 | 0.00 | 0.00 | 0.00 | 80 | 1008.0 |
| 20260509092011 | 42 | 0 | 0.0 | 0.0 | 0.00 | 0.00 | 0.00 | 80 | 1008.0 |
| 20260509091537 | 40 | 0 | 0.0 | 0.0 | 0.00 | 0.00 | 0.00 | 82 | 1007.1 |
| 20260509091535 | 42 | 0 | 0.0 | 0.0 | 0.00 | 0.00 | 0.00 | 80 | 1008.2 |
| 20260509091013 | 42 | 0 | 0.0 | 0.0 | 0.00 | 0.00 | 0.00 | 80 | 1008.1 |
| 20260509090512 | 42 | 0 | 0.0 | 0.0 | 0.00 | 0.00 | 0.00 | 80 | 1008.2 |
| 20260509090040 | 40 | 281 | 0.0 | 1.0 | 0.00 | 0.00 | 0.00 | 83 | 1007.1 |
| 20260509085515 | 42 | 0 | 0.0 | 0.0 | 0.00 | 0.00 | 0.00 | 79 | 1008.1 |
| 20260509085013 | 42 | 0 | 0.0 | 0.0 | 0.00 | 0.00 | 0.00 | 80 | 1008.1 |
| 20260509084547 | 40 | 0 | 0.0 | 0.0 | 0.00 | 0.00 | 0.00 | 82 | 1007.2 |
| 20260509084541 | 42 | 0 | 0.0 | 0.0 | 0.00 | 0.00 | 0.00 | 80 | 1008.2 |
| 20260509084011 | 42 | 0 | 0.0 | 0.0 | 0.00 | 0.00 | 0.00 | 80 | 1008.3 |
| 20260509083510 | 42 | 0 | 0.0 | 0.0 | 0.00 | 0.00 | 0.00 | 80 | 1008.3 |
| 20260509083053 | 40 | 0 | 0.0 | 1.0 | 0.00 | 0.00 | 0.00 | 82 | 1007.2 |
| 20260509083029 | 42 | 0 | 0.0 | 0.0 | 0.00 | 0.00 | 0.00 | 80 | 1008.3 |
| 20260509082511 | 41 | 0 | 0.0 | 0.0 | 0.00 | 0.00 | 0.00 | 80 | 1008.3 |
| 20260509082011 | 41 | 0 | 0.0 | 0.0 | 0.00 | 0.00 | 0.00 | 80 | 1008.1 |
| 20260509081541 | 40 | 0 | 0.0 | 0.0 | 0.00 | 0.00 | 0.00 | 82 | 1007.3 |
| 20260509081537 | 41 | 0 | 0.0 | 1.0 | 0.00 | 0.00 | 0.00 | 80 | 1008.2 |
| 20260509081015 | 41 | 0 | 0.0 | 1.0 | 0.00 | 0.00 | 0.00 | 80 | 1008.2 |
| 20260509080515 | 41 | 0 | 0.0 | 1.0 | 0.00 | 0.00 | 0.00 | 80 | 1008.2 |
| 20260509080045 | 40 | 0 | 0.0 | 1.0 | 0.00 | 0.00 | 0.00 | 82 | 1007.1 |
| 20260509080041 | 41 | 0 | 0.0 | 0.0 | 0.00 | 0.00 | 0.00 | 80 | 1008.1 |
| 20260509075514 | 41 | 0 | 0.0 | 0.0 | 0.00 | 0.00 | 0.00 | 80 | 1008.1 |
| 20260509075012 | 41 | 0 | 0.0 | 0.0 | 0.00 | 0.00 | 0.00 | 80 | 1008.2 |
| 20260509074546 | 39 | 0 | 0.0 | 0.0 | 0.00 | 0.00 | 0.00 | 82 | 1007.2 |
| 20260509074528 | 41 | 0 | 0.0 | 0.0 | 0.00 | 0.00 | 0.00 | 79 | 1008.2 |
| 20260509074017 | 41 | 0 | 0.0 | 0.0 | 0.00 | 0.00 | 0.00 | 79 | 1008.2 |
| 20260509073510 | 41 | 0 | 0.0 | 0.0 | 0.00 | 0.00 | 0.00 | 78 | 1008.3 |
| 20260509073047 | 39 | 274 | 0.0 | 1.0 | 0.00 | 0.00 | 0.00 | 81 | 1007.4 |
| 20260509073034 | 41 | 0 | 0.0 | 0.0 | 0.00 | 0.00 | 0.00 | 78 | 1008.3 |
| 20260509072510 | 41 | 0 | 0.0 | 0.0 | 0.00 | 0.00 | 0.00 | 78 | 1008.5 |
| 20260509072011 | 42 | 0 | 0.0 | 0.0 | 0.00 | 0.00 | 0.00 | 78 | 1008.5 |
| 20260509071544 | 40 | 0 | 0.0 | 1.0 | 0.00 | 0.00 | 0.00 | 81 | 1007.4 |
| 20260509071526 | 42 | 0 | 0.0 | 0.0 | 0.00 | 0.00 | 0.00 | 78 | 1008.4 |